AEE240 LGAV-LGSM

Flight info

Callsign AEE240
Flight time 0h 37m
Altitude 23000
Route KEA L995 RIPLI P32 IKARO L609 URNIL
Aircraft RJ1H/M-SDFGIRWY/LB1

Departure

Time 2026-05-07 03:08
Airport Athens Eleftherios Venizelos International Airport (LGAV)

Arrival

Time 2026-05-07 03:45
Airport Samos Airport (LGSM)
Time Latitude Longitude Altitude Speed Heading
2026-05-07 02:26 37.94395 23.95491 300 ft 0 kts 218°
2026-05-07 02:58 37.94385 23.95481 300 ft 3 kts 218°
2026-05-07 02:58 37.94353 23.95471 300 ft 7 kts 159°
2026-05-07 02:58 37.94315 23.95525 300 ft 10 kts 127°
2026-05-07 02:59 37.94295 23.95559 300 ft 0 kts 127°
2026-05-07 02:59 37.94294 23.95559 300 ft 1 kts 127°
2026-05-07 02:59 37.94283 23.95578 300 ft 5 kts 126°
2026-05-07 02:59 37.94254 23.95629 301 ft 8 kts 126°
2026-05-07 03:00 37.94210 23.95663 299 ft 8 kts 188°
2026-05-07 03:00 37.94154 23.95617 301 ft 10 kts 216°
2026-05-07 03:00 37.94098 23.95564 302 ft 10 kts 218°
2026-05-07 03:00 37.94048 23.95515 301 ft 9 kts 217°
2026-05-07 03:01 37.94002 23.95471 301 ft 8 kts 216°
2026-05-07 03:01 37.93957 23.95429 299 ft 9 kts 217°
2026-05-07 03:01 37.93901 23.95376 302 ft 11 kts 217°
2026-05-07 03:01 37.93831 23.95310 299 ft 14 kts 217°
2026-05-07 03:02 37.93751 23.95233 302 ft 15 kts 217°
2026-05-07 03:02 37.93660 23.95147 300 ft 17 kts 217°
2026-05-07 03:02 37.93570 23.95061 300 ft 16 kts 217°
2026-05-07 03:02 37.93482 23.94978 301 ft 16 kts 217°
2026-05-07 03:03 37.93391 23.94891 300 ft 17 kts 217°
2026-05-07 03:03 37.93297 23.94803 303 ft 17 kts 217°
2026-05-07 03:03 37.93201 23.94712 300 ft 17 kts 217°
2026-05-07 03:03 37.93104 23.94619 300 ft 18 kts 217°
2026-05-07 03:04 37.93006 23.94526 303 ft 18 kts 217°
2026-05-07 03:04 37.92913 23.94437 302 ft 16 kts 217°
2026-05-07 03:04 37.92827 23.94355 301 ft 15 kts 217°
2026-05-07 03:04 37.92749 23.94280 304 ft 13 kts 217°
2026-05-07 03:05 37.92677 23.94212 302 ft 11 kts 217°
2026-05-07 03:05 37.92616 23.94154 304 ft 12 kts 217°
2026-05-07 03:05 37.92550 23.94091 302 ft 12 kts 217°
2026-05-07 03:05 37.92481 23.94082 302 ft 11 kts 136°
2026-05-07 03:06 37.92433 23.94158 303 ft 11 kts 127°
2026-05-07 03:06 37.92413 23.94241 305 ft 9 kts 83°
2026-05-07 03:06 37.92413 23.94307 307 ft 6 kts 90°
2026-05-07 03:06 37.92414 23.94368 308 ft 8 kts 79°
2026-05-07 03:07 37.92440 23.94409 309 ft 0 kts 38°
2026-05-07 03:07 37.92445 23.94414 309 ft 12 kts 38°
2026-05-07 03:07 37.92729 23.94684 303 ft 88 kts 36°
2026-05-07 03:08 37.93392 23.95310 332 ft 141 kts 37°
2026-05-07 03:08 37.94217 23.96090 718 ft 150 kts 35°
2026-05-07 03:08 37.95064 23.96856 1324 ft 149 kts 37°
2026-05-07 03:08 37.95934 23.97648 1681 ft 159 kts 36°
2026-05-07 03:09 37.96853 23.98446 2119 ft 160 kts 33°
2026-05-07 03:09 37.97795 23.99265 2491 ft 167 kts 34°
2026-05-07 03:09 37.98714 24.00182 2886 ft 174 kts 45°
2026-05-07 03:09 37.99413 24.01505 3115 ft 187 kts 68°
2026-05-07 03:10 37.99601 24.03192 3249 ft 206 kts 96°
2026-05-07 03:10 37.99206 24.05035 3449 ft 226 kts 114°
2026-05-07 03:10 37.98486 24.06832 3971 ft 228 kts 124°
2026-05-07 03:10 37.97474 24.08367 4611 ft 227 kts 138°
2026-05-07 03:11 37.96205 24.09604 5052 ft 236 kts 148°
2026-05-07 03:11 37.94696 24.10553 5345 ft 250 kts 159°
2026-05-07 03:11 37.93027 24.11348 5613 ft 263 kts 161°
2026-05-07 03:11 37.91269 24.12146 5940 ft 272 kts 161°
2026-05-07 03:12 37.89478 24.12955 6404 ft 275 kts 161°
2026-05-07 03:12 37.87674 24.13790 6889 ft 277 kts 161°
2026-05-07 03:12 37.85881 24.14637 7398 ft 280 kts 160°
2026-05-07 03:12 37.84056 24.15527 7924 ft 282 kts 160°
2026-05-07 03:13 37.82193 24.16451 8452 ft 285 kts 159°
2026-05-07 03:13 37.80342 24.17394 8974 ft 288 kts 159°
2026-05-07 03:13 37.78475 24.18353 9494 ft 291 kts 159°
2026-05-07 03:13 37.76615 24.19316 10018 ft 295 kts 159°
2026-05-07 03:14 37.74698 24.20296 10554 ft 299 kts 159°
2026-05-07 03:14 37.72748 24.21276 11136 ft 304 kts 159°
2026-05-07 03:14 37.68731 24.23288 12094 ft 322 kts 159°
2026-05-07 03:15 37.66605 24.24357 12386 ft 336 kts 159°
2026-05-07 03:15 37.64387 24.25470 12616 ft 349 kts 159°
2026-05-07 03:15 37.62121 24.26636 13009 ft 354 kts 159°
2026-05-07 03:15 37.59829 24.27801 13440 ft 357 kts 159°
2026-05-07 03:16 37.57539 24.29044 13845 ft 361 kts 151°
2026-05-07 03:16 37.55662 24.31140 14206 ft 366 kts 124°
2026-05-07 03:16 37.54530 24.34002 14591 ft 367 kts 109°
2026-05-07 03:16 37.53670 24.37038 14964 ft 369 kts 107°
2026-05-07 03:17 37.52886 24.40126 15335 ft 371 kts 105°
2026-05-07 03:17 37.52135 24.43252 15701 ft 374 kts 105°
2026-05-07 03:17 37.51377 24.46396 16058 ft 377 kts 105°
2026-05-07 03:17 37.50602 24.49561 16405 ft 379 kts 105°
2026-05-07 03:18 37.49797 24.52736 16752 ft 382 kts 106°
2026-05-07 03:18 37.48977 24.55928 17094 ft 385 kts 106°
2026-05-07 03:18 37.48146 24.59140 17436 ft 387 kts 106°
2026-05-07 03:18 37.47310 24.62372 17760 ft 390 kts 106°
2026-05-07 03:19 37.46444 24.65612 18080 ft 392 kts 107°
2026-05-07 03:19 37.45581 24.68878 18398 ft 395 kts 106°
2026-05-07 03:19 37.44718 24.72169 18701 ft 397 kts 106°
2026-05-07 03:19 37.43853 24.75472 19036 ft 398 kts 106°
2026-05-07 03:20 37.42982 24.78797 19326 ft 401 kts 106°
2026-05-07 03:20 37.42088 24.82124 19635 ft 403 kts 107°
2026-05-07 03:20 37.41183 24.85477 19950 ft 405 kts 106°
2026-05-07 03:20 37.40297 24.88839 20280 ft 406 kts 106°
2026-05-07 03:21 37.39411 24.92225 20587 ft 408 kts 106°
2026-05-07 03:21 37.38510 24.95623 20882 ft 410 kts 107°
2026-05-07 03:21 37.37586 24.99024 21154 ft 412 kts 107°
2026-05-07 03:21 37.36673 25.02452 21423 ft 414 kts 106°
2026-05-07 03:22 37.35766 25.05895 21703 ft 416 kts 106°
2026-05-07 03:22 37.34854 25.09350 21975 ft 417 kts 107°
2026-05-07 03:22 37.33930 25.12763 22221 ft 419 kts 107°
2026-05-07 03:22 37.32986 25.16237 22493 ft 421 kts 107°
2026-05-07 03:23 37.32063 25.19731 22724 ft 423 kts 106°
2026-05-07 03:23 37.31137 25.23240 22949 ft 425 kts 106°
2026-05-07 03:23 37.30188 25.26757 23048 ft 421 kts 107°
2026-05-07 03:23 37.29291 25.30248 23064 ft 419 kts 99°
2026-05-07 03:24 37.29168 25.33852 23084 ft 412 kts 77°
2026-05-07 03:24 37.29981 25.37253 23098 ft 406 kts 64°
2026-05-07 03:24 37.31022 25.40546 23095 ft 404 kts 62°
2026-05-07 03:24 37.32299 25.43661 23092 ft 399 kts 54°
2026-05-07 03:25 37.33835 25.46548 23090 ft 396 kts 49°
2026-05-07 03:25 37.35483 25.49304 23086 ft 396 kts 47°
2026-05-07 03:25 37.37176 25.52030 23085 ft 396 kts 47°
2026-05-07 03:25 37.38887 25.54738 23084 ft 395 kts 46°
2026-05-07 03:26 37.40600 25.57437 23082 ft 395 kts 46°
2026-05-07 03:26 37.42310 25.60148 23081 ft 396 kts 47°
2026-05-07 03:26 37.44007 25.62878 23081 ft 396 kts 47°
2026-05-07 03:26 37.45128 25.64691 23082 ft 396 kts 47°
2026-05-07 03:27 37.46806 25.67420 23081 ft 396 kts 47°
2026-05-07 03:27 37.48491 25.70165 23081 ft 396 kts 47°
2026-05-07 03:27 37.50174 25.72913 23080 ft 396 kts 47°
2026-05-07 03:27 37.51857 25.75661 23081 ft 396 kts 47°
2026-05-07 03:28 37.53539 25.78413 23081 ft 397 kts 47°
2026-05-07 03:28 37.55094 25.80976 23068 ft 396 kts 47°
2026-05-07 03:28 37.56764 25.83758 22890 ft 398 kts 47°
2026-05-07 03:28 37.58453 25.86512 22670 ft 396 kts 47°
2026-05-07 03:29 37.60134 25.89256 22416 ft 394 kts 47°
2026-05-07 03:29 37.61808 25.91990 22048 ft 394 kts 47°
2026-05-07 03:29 37.63479 25.94727 21321 ft 393 kts 47°
2026-05-07 03:29 37.65133 25.97462 20577 ft 386 kts 47°
2026-05-07 03:30 37.66742 26.00128 19820 ft 383 kts 47°
2026-05-07 03:30 37.68364 26.02794 19056 ft 382 kts 47°
2026-05-07 03:30 37.69985 26.05446 18318 ft 381 kts 47°
2026-05-07 03:30 37.71587 26.08090 17572 ft 377 kts 47°
2026-05-07 03:31 37.73172 26.10718 16824 ft 374 kts 47°
2026-05-07 03:31 37.74744 26.13310 16072 ft 370 kts 47°
2026-05-07 03:31 37.76306 26.15866 15327 ft 365 kts 48°
2026-05-07 03:31 37.77823 26.18368 14586 ft 362 kts 48°
2026-05-07 03:32 37.79345 26.20882 13815 ft 358 kts 49°
2026-05-07 03:32 37.80849 26.23360 13082 ft 353 kts 49°
2026-05-07 03:32 37.82329 26.25820 12331 ft 349 kts 49°
2026-05-07 03:32 37.83705 26.28247 11581 ft 327 kts 58°
2026-05-07 03:33 37.84308 26.30992 10829 ft 329 kts 86°
2026-05-07 03:33 37.83855 26.33806 10094 ft 329 kts 112°
2026-05-07 03:33 37.82748 26.36322 9352 ft 325 kts 122°
2026-05-07 03:33 37.81398 26.38531 8592 ft 302 kts 130°
2026-05-07 03:34 37.80006 26.40370 7831 ft 285 kts 134°
2026-05-07 03:34 37.78589 26.42039 7071 ft 273 kts 137°
2026-05-07 03:34 37.77129 26.43665 6346 ft 285 kts 138°
2026-05-07 03:34 37.75614 26.45293 5823 ft 285 kts 139°
2026-05-07 03:35 37.74097 26.46902 5323 ft 284 kts 139°
2026-05-07 03:35 37.72584 26.48502 4828 ft 284 kts 139°
2026-05-07 03:35 37.71079 26.50107 4333 ft 282 kts 139°
2026-05-07 03:35 37.69592 26.51722 3835 ft 282 kts 139°
2026-05-07 03:36 37.68225 26.53472 3324 ft 279 kts 122°
2026-05-07 03:36 37.67570 26.55700 2842 ft 259 kts 104°
2026-05-07 03:36 37.67139 26.57813 2338 ft 240 kts 105°
2026-05-07 03:36 37.66753 26.59745 2123 ft 210 kts 103°
2026-05-07 03:37 37.66424 26.61448 2058 ft 189 kts 104°
2026-05-07 03:37 37.66108 26.63023 2034 ft 184 kts 104°
2026-05-07 03:37 37.65783 26.64584 2009 ft 184 kts 105°
2026-05-07 03:37 37.65439 26.66143 2007 ft 184 kts 106°
2026-05-07 03:38 37.65087 26.67703 2003 ft 185 kts 106°
2026-05-07 03:38 37.64732 26.69261 2002 ft 185 kts 106°
2026-05-07 03:38 37.64365 26.70814 1998 ft 185 kts 107°
2026-05-07 03:38 37.63997 26.72365 1996 ft 184 kts 107°
2026-05-07 03:39 37.63634 26.73916 1997 ft 185 kts 106°
2026-05-07 03:39 37.63385 26.75504 1998 ft 184 kts 96°
2026-05-07 03:39 37.63315 26.77118 1998 ft 185 kts 91°
2026-05-07 03:39 37.63303 26.78741 1998 ft 185 kts 89°
2026-05-07 03:40 37.63324 26.80356 1996 ft 180 kts 89°
2026-05-07 03:40 37.63342 26.81846 1997 ft 164 kts 89°
2026-05-07 03:40 37.63356 26.83274 1997 ft 163 kts 89°
2026-05-07 03:40 37.63363 26.84699 1998 ft 162 kts 90°
2026-05-07 03:41 37.63366 26.86130 1998 ft 163 kts 90°
2026-05-07 03:41 37.63366 26.87568 1995 ft 164 kts 90°
2026-05-07 03:41 37.63363 26.89001 1995 ft 163 kts 90°
2026-05-07 03:41 37.63363 26.90431 2000 ft 163 kts 89°
2026-05-07 03:42 37.63378 26.91896 2030 ft 175 kts 88°
2026-05-07 03:42 37.63445 26.93414 2202 ft 163 kts 84°
2026-05-07 03:42 37.63588 26.94800 2197 ft 156 kts 79°
2026-05-07 03:42 37.63969 26.96027 2034 ft 148 kts 56°
2026-05-07 03:43 37.64677 26.96862 1793 ft 138 kts 29°
2026-05-07 03:43 37.65583 26.97205 1445 ft 135 kts
2026-05-07 03:43 37.66522 26.97207 1086 ft 134 kts 351°
2026-05-07 03:43 37.67413 26.96905 874 ft 134 kts 334°
2026-05-07 03:44 37.68145 26.96193 724 ft 133 kts 309°
2026-05-07 03:44 37.68583 26.95160 551 ft 135 kts 288°
2026-05-07 03:44 37.68757 26.94006 346 ft 132 kts 274°
2026-05-07 03:44 37.68823 26.92871 147 ft 126 kts 274°
2026-05-07 03:45 37.68883 26.91816 31 ft 111 kts 274°
2026-05-07 03:45 37.68936 26.90929 29 ft 90 kts 274°
2026-05-07 03:45 37.68970 26.90364 28 ft 46 kts 275°
2026-05-07 03:45 37.68963 26.90165 29 ft 14 kts 134°
2026-05-07 03:46 37.68971 26.90298 28 ft 16 kts 93°
2026-05-07 03:46 37.68962 26.90444 28 ft 17 kts 94°
2026-05-07 03:46 37.68953 26.90595 28 ft 18 kts 94°
2026-05-07 03:46 37.68943 26.90778 29 ft 22 kts 94°
2026-05-07 03:47 37.68931 26.90971 29 ft 20 kts 94°
2026-05-07 03:47 37.68992 26.91061 29 ft 13 kts 22°
2026-05-07 03:47 37.69005 26.91174 29 ft 16 kts 94°
2026-05-07 03:47 37.68997 26.91308 29 ft 14 kts 94°
2026-05-07 03:48 37.69016 26.91377 29 ft 7 kts
2026-05-07 03:48 37.69053 26.91379 29 ft 0 kts